カタログに戻る

NOAA 16 DEB

運用中SSO
NORAD 41056·DEBRIS·🇺🇸 United States

打ち上げ Sep 21, 2000 から Vandenberg Space Force Base

Loading…

次のパス (今後24時間)

TLE

最新Source: Space-Track

元期: Sep 14, 2026, 10:48 UTC

1 41056U 00055P   26257.45010115  .00000572  00000-0  32338-3 0  9991
2 41056  98.5643 253.1165 0015896 217.2719 142.7353 14.13904928556107

AllMySatでNOAA 16 DEBをリアルタイム追跡

Download on the App Store